Flag for Singapore Weather past 2 weeks in Singapore, Singapore

Now
79 °F

Passing clouds.


Feels Like: 82 °F
Forecast: 78 / 84 °F
Wind: 3 mph from Northeast

Location: Singapore / Paya Lebar

Current Time: Dec 21, 2014 at 6:39:05 AM

Latest Report: Dec 21, 2014 at 6:00 AM


Visibility: N/A

Pressure: 29.74 "Hg

Humidity: 89%

Dew point: 75 °F

Location of SingaporeLocation

Historic Weather in Singapore — Graph

°F

Singapore temperature yesterday

Maximum temperature yesterday: 91 °F (at 2:00 PM)
Minimum temperature yesterday: 77 °F (at 5:00 AM)
Average temperature yesterday: 82 °F

Past Weeks' High & Low Weather Summary

 TemperatureHumidityPressure
High95 °F (Dec 7, 2:00 PM)100% (Dec 19, 3:00 PM)29.92 "Hg (Dec 19, 3:00 PM)
Low77 °F (Dec 6, 10:00 AM)50% (Dec 7, 2:00 PM)29.71 "Hg (Dec 20, 4:00 PM)
Average83 °F78%29.82 "Hg
* Reported Dec 6 5:00 AM — Dec 21 5:00 AM, Singapore, Weather by CustomWeather, © 2014

Note: Actual official high and low records may vary slightly from our data, if they occured in-between our weather recording intervals... More about our weather records

Advertising

Singapore weather history for previous 24 hours

 ConditionsComfort  
Time TempWeatherWind HumidityBarometerVisibility
5:00 AM
Dec 21
79 °FPassing clouds.3 mph89%29.74 "HgN/A
11:00 PM
Dec 20
81 °FPassing clouds.8 mph89%29.83 "HgN/A
10:00 PM81 °FPassing clouds.10 mph89%29.80 "HgN/A
9:00 PM81 °FPassing clouds.7 mph89%29.80 "HgN/A
8:00 PM81 °FPassing clouds.6 mph89%29.77 "HgN/A
7:00 PM81 °FScattered clouds.6 mph89%29.74 "HgN/A
6:00 PM81 °FThunderstorms. Scattered clouds.2 mph89%29.74 "HgN/A
5:00 PM79 °FThunderstorms. Partly sunny.5 mph94%29.71 "Hg5 mi
4:50 PM79 °FThunderstorms. Scattered clouds.3 mph89%29.71 "Hg3 mi
4:00 PM84 °FSprinkles. Partly sunny.9 mph74%29.71 "Hg6 mi
3:00 PM91 °FScattered clouds.3 mph59%29.74 "HgN/A
2:00 PM91 °FBroken clouds.6 mph59%29.77 "HgN/A
1:00 PM90 °FBroken clouds.9 mph67%29.80 "HgN/A
12:00 PM86 °FBroken clouds.9 mph70%29.83 "HgN/A
11:00 AM84 °FPartly sunny.9 mph74%29.86 "HgN/A
10:00 AM82 °FPartly sunny.10 mph79%29.83 "HgN/A
9:00 AM81 °FBroken clouds.7 mph84%29.83 "HgN/A
8:00 AM77 °FBroken clouds.No wind94%29.83 "HgN/A
7:00 AM77 °FBroken clouds.1 mph94%29.80 "HgN/A
6:00 AM77 °FPassing clouds.1 mph94%29.77 "HgN/A
Weather by CustomWeather, © 2014

See weather overviewHow to use our weather pages